Regional Weather Roundup
Issued by NWS

Home | Current Version | Previous Version | Text Only | Print | Product List | Glossary Off
Versions: 1 2 3 4 5 6 7 8 9 10 11 12 13 14 15 16 17 18 19 20 21 22 23 24 25 26 27 28 29 30 31 32 33 34 35 36 37 38 39 40 41 42 43 44 45 46 47 48 49 50

934
ASUS44 KMEG 140110
RWRTN
TENNESSEE HOURLY STATE WEATHER ROUNDUP
NATIONAL WEATHER SERVICE MEMPHIS TN
700 PM CST SAT FEB 13 2016

TNZ002-004-019-021-049-052-054-088>092-140200-
WEST TENNESSEE

CITY           SKY/WX    TMP DP  RH WIND       PRES   REMARKS
MEMPHIS INTL   CLOUDY    33   8  35 NE12      30.43F WCI  24
NWS MEMPHIS      N/A     31 N/A N/A MISG        N/A
JACKSON        CLOUDY    31   7  36 NE7       30.46F WCI  24
DYERSBURG      MOCLDY    28   7  40 E9        30.49F WCI  20
UNION CITY     CLOUDY    27   7  43 E9        30.46F WCI  17
PARIS          CLOUDY    25   5  42 NE9       30.47F WCI  15
LEXINGTON      CLOUDY    30   1  29 NE3       30.46R
$$

TNZ008-025-027-028-033-062-065-066-140200-
NORTH MIDDLE TENNESSEE

CITY           SKY/WX    TMP DP  RH WIND       PRES   REMARKS
NASHVILLE      CLOUDY    27   2  34 N7        30.50R WCI  19
CLARKSVILLE    CLOUDY    26   4  38 NE9       30.50F WCI  17
SMYRNA         PTCLDY    26   5  40 N7        30.51R WCI  18
COOKEVILLE     CLEAR     25   7  46 NE5       30.44F WCI  19
CROSSVILLE     CLOUDY    23   2  40 N6        30.40R WCI  16
$$

TNZ061-075-076-078-094-096-097-140200-
SOUTH MIDDLE TENNESSEE

CITY           SKY/WX    TMP DP  RH WIND       PRES   REMARKS
FAYETTEVILLE   CLEAR     27   5  39 N9        30.43S WCI  17
TULLAHOMA      CLEAR     25   3  39 N7        30.43F WCI  17
WINCHESTER     CLEAR     27   7  43 N3        30.43F
MCMINNVILLE    CLEAR     25   7  46 N6        30.44S WCI  18
COLUMBIA       CLOUDY    28   7  40 NE9       30.45S WCI  20
SHELBYVILLE    CLEAR     25   9  50 N3        30.47S
$$

TNZ017-018-042-046-047-140200-
NORTHEAST TENNESSEE

CITY           SKY/WX    TMP DP  RH WIND       PRES   REMARKS
TRI CITIES     CLEAR     19   3  49 N5        30.41R WCI  12
$$

TNZ012-013-036-069-073-074-140200-
CENTRAL EAST TENNESSEE

CITY           SKY/WX    TMP DP  RH WIND       PRES   REMARKS
KNOXVILLE      CLEAR     25   6  44 NE7       30.44R WCI  17
OAK RIDGE      CLEAR     27   3  35 CALM      30.47R
GATLINBURG     CLEAR     21   1  42 CALM      30.44R
MORRISTOWN     PTCLDY    23   3  42 N7        30.41S WCI  15
$$

TNZ083-085-099-140200-
SOUTHEAST TENNESSEE

CITY           SKY/WX    TMP DP  RH WIND       PRES   REMARKS
CHATTANOOGA    PTCLDY    31   4  31 N10       30.44R WCI  22
$$

SKY/WX REPORTED AS FAIR MEANS FEW OR NO CLOUDS BELOW
12 THOUSAND FEET.





USA.gov is the U.S. government's official web portal to all federal, state and local government web resources and services.